TimeEDT,TemperatureF,Dew PointF,Humidity,Sea Level PressureIn,VisibilityMPH,Wind Direction,Wind SpeedMPH,Gust SpeedMPH,PrecipitationIn,Events,Conditions,WindDirDegrees,DateUTC
12:15 AM,44.6,32.0,61,29.90,10.0,WSW,6.9,-,N/A,,Clear,250,2012-11-02 04:15:00
12:35 AM,44.6,32.0,61,29.90,10.0,WSW,8.1,-,N/A,,Clear,250,2012-11-02 04:35:00
12:55 AM,44.6,33.8,66,29.91,10.0,WSW,6.9,-,N/A,,Clear,250,2012-11-02 04:55:00
1:15 AM,44.6,33.8,66,29.91,10.0,West,8.1,-,N/A,,Clear,260,2012-11-02 05:15:00
1:35 AM,44.6,33.8,66,29.91,10.0,West,10.4,-,N/A,,Clear,280,2012-11-02 05:35:00
1:55 AM,44.6,32.0,61,29.90,10.0,WNW,9.2,-,N/A,,Clear,290,2012-11-02 05:55:00
2:15 AM,44.6,30.2,57,29.91,10.0,WNW,10.4,-,N/A,,Clear,290,2012-11-02 06:15:00
2:35 AM,44.6,30.2,57,29.91,10.0,NW,8.1,-,N/A,,Clear,310,2012-11-02 06:35:00
2:55 AM,42.8,30.2,61,29.91,10.0,NW,6.9,-,N/A,,Clear,310,2012-11-02 06:55:00
3:15 AM,41.0,30.2,65,29.91,10.0,WNW,6.9,-,N/A,,Clear,300,2012-11-02 07:15:00
3:35 AM,41.0,32.0,70,29.92,10.0,WNW,5.8,-,N/A,,Clear,300,2012-11-02 07:35:00
3:55 AM,39.2,30.2,70,29.90,10.0,WNW,4.6,-,N/A,,Clear,290,2012-11-02 07:55:00
4:15 AM,39.2,30.2,70,29.91,10.0,North,3.5,-,N/A,,Clear,350,2012-11-02 08:15:00
4:35 AM,37.4,30.2,75,29.92,10.0,West,5.8,-,N/A,,Clear,280,2012-11-02 08:35:00
4:55 AM,39.2,32.0,75,29.93,10.0,WNW,4.6,-,N/A,,Clear,290,2012-11-02 08:55:00
5:15 AM,39.2,32.0,75,29.94,10.0,WNW,4.6,-,N/A,,Clear,300,2012-11-02 09:15:00
5:35 AM,39.2,32.0,75,29.93,10.0,Calm,Calm,-,N/A,,Clear,0,2012-11-02 09:35:00
5:50 AM,39.2,32.0,75,29.94,10.0,NW,5.8,-,N/A,,Clear,320,2012-11-02 09:50:00
5:55 AM,39.2,32.0,75,29.94,10.0,Calm,Calm,-,N/A,,Clear,0,2012-11-02 09:55:00
7:50 AM,46.4,33.8,62,29.97,10.0,West,9.2,-,N/A,,Clear,280,2012-11-02 11:50:00
8:45 AM,44.6,33.8,66,29.97,10.0,West,9.2,-,N/A,,Clear,270,2012-11-02 12:45:00
9:50 AM,51.8,32.0,47,29.97,10.0,West,9.2,-,N/A,,Scattered Clouds,260,2012-11-02 13:50:00
10:50 AM,59.0,32.0,36,29.97,10.0,West,9.2,-,N/A,,Mostly Cloudy,270,2012-11-02 14:50:00
11:50 AM,62.6,33.8,34,29.95,10.0,WSW,11.5,-,N/A,,Mostly Cloudy,240,2012-11-02 15:50:00
1:45 PM,69.8,39.2,33,29.87,10.0,SW,15.0,17.3,N/A,,Mostly Cloudy,220,2012-11-02 17:45:00
2:45 PM,71.6,39.2,31,29.83,10.0,WSW,13.8,21.9,N/A,,Scattered Clouds,240,2012-11-02 18:45:00
3:50 PM,71.6,39.2,31,29.82,10.0,WSW,13.8,-,N/A,,Partly Cloudy,250,2012-11-02 19:50:00
4:45 PM,71.6,39.2,31,29.83,10.0,West,11.5,-,N/A,,Clear,260,2012-11-02 20:45:00
5:45 PM,69.8,41.0,35,29.84,10.0,WSW,9.2,-,N/A,,Clear,250,2012-11-02 21:45:00
6:50 PM,64.4,42.8,45,29.86,10.0,Calm,Calm,-,N/A,,Clear,0,2012-11-02 22:50:00
7:50 PM,59.0,44.6,59,29.89,10.0,Calm,Calm,-,N/A,,Clear,0,2012-11-02 23:50:00
8:45 PM,57.2,44.6,63,29.90,10.0,Calm,Calm,-,N/A,,Clear,0,2012-11-03 00:45:00
9:45 PM,57.2,46.4,67,29.93,10.0,North,15.0,-,N/A,,Clear,10,2012-11-03 01:45:00
10:55 PM,53.6,46.4,77,29.95,10.0,NNE,10.4,-,N/A,,Clear,30,2012-11-03 02:55:00
11:15 PM,55.4,44.6,67,29.95,10.0,NNE,9.2,-,N/A,,Clear,30,2012-11-03 03:15:00
11:35 PM,55.4,44.6,67,29.95,10.0,NNE,9.2,-,N/A,,Partly Cloudy,20,2012-11-03 03:35:00
11:55 PM,55.4,42.8,63,29.95,10.0,NNE,9.2,-,N/A,,Scattered Clouds,30,2012-11-03 03:55:00